| time (UTC) | temp F | wind direction | speed MPH | gust MPH | rain 1hr in | rain 24hr in | rain mn in | humidity % | barometer mb |
| 20260906064601 | 73 | 0 | 0.0 | 0.0 | 0.00 | 0.47 | 0.00 | 82 | 1012.3 |
| 20260906063101 | 72 | 0 | 0.0 | 0.0 | 0.00 | 0.47 | 0.00 | 84 | 1012.5 |
| 20260906061601 | 72 | 0 | 0.0 | 0.0 | 0.00 | 0.47 | 0.00 | 85 | 1012.8 |
| 20260906060106 | 72 | 74 | 1.0 | 2.0 | 0.00 | 0.47 | 0.00 | 87 | 1013.0 |
| 20260906054610 | 72 | 76 | 1.0 | 2.0 | 0.00 | 0.47 | 0.00 | 88 | 1012.9 |
| 20260906053101 | 72 | 92 | 1.0 | 2.0 | 0.00 | 0.47 | 0.00 | 89 | 1013.0 |
| 20260906051606 | 73 | 68 | 1.0 | 2.0 | 0.00 | 0.47 | 0.00 | 86 | 1013.2 |
| 20260906050108 | 73 | 92 | 1.0 | 2.0 | 0.00 | 0.47 | 0.00 | 86 | 1013.1 |
| 20260906044607 | 73 | 79 | 1.0 | 2.0 | 0.00 | 0.47 | 0.00 | 86 | 1013.2 |
| 20260906043103 | 73 | 96 | 0.0 | 1.0 | 0.00 | 0.47 | 0.00 | 86 | 1013.3 |
| 20260906041607 | 73 | 0 | 0.0 | 0.0 | 0.00 | 0.47 | 0.00 | 86 | 1013.4 |
| 20260906040108 | 74 | 0 | 0.0 | 1.0 | 0.00 | 0.47 | 0.00 | 85 | 1013.5 |
| 20260906034605 | 74 | 96 | 0.0 | 2.0 | 0.00 | 0.47 | 0.47 | 85 | 1013.4 |
| 20260906033101 | 75 | 98 | 2.0 | 3.0 | 0.00 | 0.47 | 0.47 | 84 | 1013.5 |
| 20260906031605 | 74 | 82 | 1.0 | 2.0 | 0.00 | 0.47 | 0.47 | 85 | 1013.5 |
| 20260906030104 | 74 | 0 | 0.0 | 1.0 | 0.00 | 0.47 | 0.47 | 86 | 1013.5 |
| 20260906024603 | 74 | 84 | 1.0 | 2.0 | 0.00 | 0.47 | 0.47 | 87 | 1013.4 |
| 20260906023058 | 74 | 83 | 2.0 | 4.0 | 0.00 | 0.47 | 0.47 | 88 | 1013.4 |
| 20260906021601 | 75 | 101 | 2.0 | 3.0 | 0.00 | 0.47 | 0.47 | 87 | 1013.2 |
| 20260906020100 | 75 | 109 | 1.0 | 3.0 | 0.00 | 0.47 | 0.47 | 87 | 1013.2 |
| 20260906014649 | 76 | 104 | 1.0 | 2.0 | 0.00 | 0.47 | 0.47 | 85 | 1013.0 |
| 20260906013105 | 76 | 113 | 0.0 | 1.0 | 0.00 | 0.47 | 0.47 | 85 | 1013.1 |
| 20260906011606 | 76 | 130 | 0.0 | 1.0 | 0.00 | 0.47 | 0.47 | 84 | 1012.9 |
| 20260906004615 | 76 | 0 | 0.0 | 1.0 | 0.00 | 0.47 | 0.47 | 84 | 1012.8 |
| 20260906003115 | 77 | 145 | 0.0 | 1.0 | 0.00 | 0.47 | 0.47 | 83 | 1012.4 |
| 20260906001603 | 78 | 0 | 0.0 | 1.0 | 0.00 | 0.47 | 0.47 | 79 | 1012.0 |
| 20260905234612 | 80 | 89 | 0.0 | 1.0 | 0.00 | 0.47 | 0.47 | 75 | 1011.7 |
| 20260905233103 | 81 | 0 | 0.0 | 1.0 | 0.00 | 0.47 | 0.47 | 72 | 1011.6 |
| 20260905231600 | 82 | 105 | 0.0 | 2.0 | 0.00 | 0.47 | 0.47 | 72 | 1011.6 |
| 20260905230110 | 82 | 87 | 1.0 | 4.0 | 0.00 | 0.47 | 0.47 | 71 | 1011.6 |
| 20260905224614 | 82 | 125 | 2.0 | 4.0 | 0.00 | 0.47 | 0.47 | 70 | 1011.5 |
| 20260905223107 | 83 | 87 | 2.0 | 3.0 | 0.00 | 0.47 | 0.47 | 68 | 1011.8 |
| 20260905221617 | 83 | 77 | 0.0 | 3.0 | 0.00 | 0.47 | 0.47 | 69 | 1011.6 |
| 20260905220111 | 83 | 0 | 0.0 | 2.0 | 0.00 | 0.47 | 0.47 | 70 | 1011.6 |
| 20260905214603 | 82 | 80 | 1.0 | 3.0 | 0.00 | 0.47 | 0.47 | 67 | 1011.9 |
| 20260905213106 | 82 | 327 | 0.0 | 2.0 | 0.00 | 0.47 | 0.47 | 69 | 1012.3 |
| 20260905211602 | 82 | 23 | 1.0 | 4.0 | 0.00 | 0.47 | 0.47 | 70 | 1012.2 |
| 20260905210107 | 81 | 19 | 1.0 | 3.0 | 0.00 | 0.47 | 0.47 | 75 | 1012.1 |
| 20260905204600 | 80 | 20 | 1.0 | 2.0 | 0.00 | 0.47 | 0.47 | 79 | 1012.1 |
| 20260905203104 | 79 | 15 | 0.0 | 2.0 | 0.00 | 0.47 | 0.47 | 82 | 1012.2 |
| 20260905201615 | 79 | 346 | 0.0 | 3.0 | 0.00 | 0.47 | 0.47 | 80 | 1012.5 |
| 20260905194600 | 79 | 221 | 0.0 | 1.0 | 0.00 | 0.47 | 0.47 | 83 | 1012.8 |
| 20260905193114 | 77 | 75 | 0.0 | 1.0 | 0.00 | 0.47 | 0.47 | 82 | 1012.5 |
| 20260905191603 | 78 | 73 | 1.0 | 3.0 | 0.00 | 0.47 | 0.47 | 83 | 1012.7 |
| 20260905190108 | 77 | 75 | 1.0 | 3.0 | 0.00 | 0.47 | 0.47 | 83 | 1012.2 |
| 20260905184605 | 76 | 221 | 0.0 | 4.0 | 0.01 | 0.47 | 0.47 | 87 | 1011.7 |
| 20260905183103 | 75 | 0 | 0.0 | 3.0 | 0.28 | 0.47 | 0.47 | 90 | 1012.4 |
| 20260905181612 | 73 | 0 | 0.0 | 1.0 | 0.47 | 0.47 | 0.47 | 88 | 1013.0 |
| 20260905180104 | 72 | 0 | 1.0 | 4.0 | 0.47 | 0.47 | 0.47 | 85 | 1013.3 |
| 20260905174606 | 74 | 215 | 4.0 | 14.0 | 0.46 | 0.46 | 0.46 | 79 | 1014.6 |
| 20260905173100 | 76 | 20 | 3.0 | 19.0 | 0.19 | 0.19 | 0.19 | 75 | 1015.1 |
| 20260905171604 | 92 | 76 | 3.0 | 9.0 | 0.00 | 0.00 | 0.00 | 53 | 1013.6 |
| 20260905170106 | 93 | 217 | 3.0 | 8.0 | 0.00 | 0.00 | 0.00 | 53 | 1013.7 |
| 20260905164603 | 93 | 79 | 2.0 | 6.0 | 0.00 | 0.00 | 0.00 | 51 | 1013.9 |
| 20260905163059 | 93 | 10 | 0.0 | 3.0 | 0.00 | 0.00 | 0.00 | 52 | 1014.0 |
| 20260905161604 | 93 | 0 | 0.0 | 3.0 | 0.00 | 0.00 | 0.00 | 53 | 1014.1 |
| 20260905154619 | 92 | 30 | 0.0 | 3.0 | 0.00 | 0.00 | 0.00 | 55 | 1014.6 |
| 20260905153059 | 92 | 129 | 2.0 | 5.0 | 0.00 | 0.00 | 0.00 | 56 | 1014.4 |
| 20260905151605 | 91 | 243 | 0.0 | 5.0 | 0.00 | 0.00 | 0.00 | 59 | 1014.2 |
| 20260905144600 | 90 | 65 | 0.0 | 3.0 | 0.00 | 0.00 | 0.00 | 63 | 1014.5 |
| 20260905143100 | 88 | 0 | 1.0 | 3.0 | 0.00 | 0.00 | 0.00 | 63 | 1014.5 |
| 20260905141605 | 87 | 134 | 2.0 | 3.0 | 0.00 | 0.00 | 0.00 | 64 | 1014.4 |
| 20260905140105 | 86 | 0 | 0.0 | 2.0 | 0.00 | 0.00 | 0.00 | 66 | 1014.4 |
| 20260905134600 | 84 | 0 | 1.0 | 2.0 | 0.00 | 0.00 | 0.00 | 71 | 1014.4 |
| 20260905133101 | 84 | 96 | 0.0 | 2.0 | 0.00 | 0.00 | 0.00 | 70 | 1014.6 |
| 20260905131609 | 82 | 0 | 0.0 | 0.0 | 0.00 | 0.00 | 0.00 | 73 | 1014.7 |
| 20260905124605 | 79 | 0 | 0.0 | 0.0 | 0.00 | 0.00 | 0.00 | 77 | 1014.8 |
| 20260905123105 | 77 | 0 | 0.0 | 3.0 | 0.00 | 0.00 | 0.00 | 80 | 1014.7 |
| 20260905121603 | 75 | 70 | 1.0 | 3.0 | 0.00 | 0.00 | 0.00 | 83 | 1014.5 |
| 20260905120100 | 74 | 0 | 0.0 | 1.0 | 0.00 | 0.00 | 0.00 | 85 | 1014.3 |
| 20260905114600 | 73 | 0 | 0.0 | 0.0 | 0.00 | 0.00 | 0.00 | 86 | 1014.3 |
| 20260905113104 | 73 | 0 | 0.0 | 0.0 | 0.00 | 0.00 | 0.00 | 86 | 1014.3 |
| 20260905111610 | 74 | 0 | 0.0 | 0.0 | 0.00 | 0.00 | 0.00 | 84 | 1014.0 |
| 20260905110101 | 74 | 94 | 1.0 | 2.0 | 0.00 | 0.00 | 0.00 | 84 | 1013.9 |
| 20260905104615 | 73 | 0 | 0.0 | 2.0 | 0.00 | 0.00 | 0.00 | 86 | 1013.7 |
| 20260905103105 | 73 | 0 | 0.0 | 2.0 | 0.00 | 0.00 | 0.00 | 86 | 1013.7 |
| 20260905101604 | 73 | 114 | 0.0 | 2.0 | 0.00 | 0.00 | 0.00 | 86 | 1013.5 |
| 20260905100107 | 73 | 0 | 0.0 | 0.0 | 0.00 | 0.00 | 0.00 | 86 | 1013.5 |
| 20260905094602 | 73 | 0 | 0.0 | 0.0 | 0.00 | 0.00 | 0.00 | 86 | 1013.4 |
| 20260905093104 | 73 | 0 | 0.0 | 0.0 | 0.00 | 0.00 | 0.00 | 86 | 1013.4 |
| 20260905091636 | 73 | 0 | 0.0 | 0.0 | 0.00 | 0.00 | 0.00 | 85 | 1013.4 |
| 20260905090059 | 74 | 0 | 0.0 | 0.0 | 0.00 | 0.00 | 0.00 | 84 | 1013.5 |
| 20260905084613 | 74 | 91 | 1.0 | 3.0 | 0.00 | 0.00 | 0.00 | 84 | 1013.6 |
| 20260905083101 | 74 | 96 | 0.0 | 1.0 | 0.00 | 0.00 | 0.00 | 83 | 1013.7 |
| 20260905081602 | 75 | 0 | 0.0 | 1.0 | 0.00 | 0.00 | 0.00 | 82 | 1013.9 |
| 20260905080108 | 74 | 0 | 0.0 | 2.0 | 0.00 | 0.00 | 0.00 | 83 | 1014.0 |
| 20260905074616 | 75 | 0 | 0.0 | 0.0 | 0.00 | 0.00 | 0.00 | 82 | 1014.2 |
| 20260905073103 | 75 | 0 | 0.0 | 0.0 | 0.00 | 0.00 | 0.00 | 82 | 1014.1 |
| 20260905071612 | 75 | 0 | 0.0 | 0.0 | 0.00 | 0.00 | 0.00 | 81 | 1014.3 |
| 20260905070111 | 75 | 0 | 0.0 | 1.0 | 0.00 | 0.00 | 0.00 | 81 | 1014.5 |